Heure de lever du soleil au 20-01-2017 / 19 ° de l'année/ semaine 0308 h 35 Heure de coucher du soleil au 20-01-2017 / 19 ° de l'année/ semaine 0317 h 27

Compte Facebook Association Météo Centre     Compte Twitter Association Météo Centre - @AssoMétéoCentre     Chaîne Youtube Association Météo Centre     Bouton contact Association Météo Centre 

adhesion_association_2017
Gif alerte météo

Choix de la station :
Période à consulter :
Aujourd'hui


 

Conditions météo à Abbeville - Altitude 77m

  

Date du relevé20/01/2017 à 12:00
Visibilité15km
Nébulosité1/8 (nuages rares)
Vent7 km/h E
Température1 °C
Humidité62.7 %
Point de rosée-5.3 °C
Pression absolue1023.6 hPa
Pression relative1032.8 hPa
Variation pression-0.2 hPa stationnaire ou en hausse puis en baisse, puis en baisse plus rapide


Historique météo des dernières 24 heures à Abbeville


Date - Heure Base des nuages Visibilité Nébulosité Vent Température Humidité Point rosée Pression Précipitations Temps
20/01 12:00 15km 1/8 7 km/h E 1 °C 62.7 % -5.3 °C 1032.8 hPa
20/01 11:00 plus de 2500m 15km 0/8 6 km/h E 0.1 °C 65.9 % -5.5 °C 1033.2 hPa
20/01 10:00 plus de 2500m 20km 0/8 6 km/h E -1.9 °C 72.9 % -6.1 °C 1033.2 hPa
20/01 09:00 20km 1/8 6 km/h ENE -3.4 °C 76.7 % -6.9 °C 1033.2 hPa
20/01 08:00 plus de 2500m 18km 0/8 6 km/h ENE -3 °C 76.2 % -6.6 °C 1033.1 hPa
20/01 07:00 18km 6 km/h ENE -3.1 °C 76.1 % -6.7 °C 1033.1 hPa 0 mm/12h
20/01 06:00 plus de 2500m 15km 0/8 7 km/h ENE -2.4 °C 72.8 % -6.6 °C 1033.1 hPa
20/01 05:00 19km 9 km/h ENE -2 °C 70.7 % -6.6 °C 1033.4 hPa
20/01 04:00 19km 7 km/h E -2.4 °C 72.8 % -6.6 °C 1033.8 hPa
20/01 03:00 19km 7 km/h ENE -2.5 °C 75.7 % -6.2 °C 1034.2 hPa
20/01 02:00 19km 7 km/h ENE -1.8 °C 71.8 % -6.2 °C 1034.1 hPa
20/01 01:00 18km 7 km/h ENE -1.7 °C 71.9 % -6.1 °C 1034.5 hPa 0 mm/6h
20/01 00:00 16km 6 km/h ENE -1.7 °C 74.1 % -5.7 °C 1034.6 hPa
19/01 23:00 16km 7 km/h ENE -1.1 °C 73.1 % -5.3 °C 1034.7 hPa
19/01 22:00 15km 9 km/h ENE -0.4 °C 70 % -5.2 °C 1034.9 hPa
19/01 21:00 15km 7 km/h ENE -0.4 °C 71 % -5 °C 1034.9 hPa
19/01 20:00 15km 9 km/h ENE 0.1 °C 70.1 % -4.7 °C 1034.7 hPa
19/01 19:00 10km 9 km/h ENE 0.1 °C 76.1 % -3.6 °C 1034.4 hPa
19/01 18:00 12km 7 km/h ENE 0.5 °C 72.8 % -3.8 °C 1034.2 hPa
19/01 17:00 15km 1/8 9 km/h NE 1.1 °C 69.8 % -3.8 °C 1034.1 hPa
19/01 16:00 10km 1/8 9 km/h ENE 2.1 °C 61.1 % -4.6 °C 1034.5 hPa
19/01 15:00 16km 9 km/h ENE 2.1 °C 63 % -4.2 °C 1034.8 hPa
19/01 14:00 8km 1/8 9 km/h ENE 1.8 °C 58.8 % -5.4 °C 1035 hPa
19/01 13:00 7km 1/8 7 km/h ENE 1.1 °C 66.7 % -4.4 °C 1035.9 hPa 0 mm/6h

L'association Météo Centre n'est pas responsable de la mise à jour de ces données.

Météo-Centre.fr depuis 2008
Nos informations ne doivent jamais servir à la protection des biens et des personnes. Elles n'engagent pas la responsabilité de l'association Météo Centre.
Contact - Haut de page - Partenaires - Mentions légales